AZA417 EDDL-LIML

Flight info

Callsign AZA417
Flight time 1h 11m
Altitude 39000
Route DODEN1T DODEN Y852 NATOR DCT TRA DCT RIPUS DCT GERSA DCT SOSON DCT ODINA
Aircraft E195/M-SDE3GILORVW/S

Departure

Time 2026-05-04 20:01
Airport Düsseldorf Airport (EDDL)

Arrival

Time 2026-05-04 21:13
Airport Milano Linate Airport (LIML)
Time Latitude Longitude Altitude Speed Heading
2026-05-04 19:18 51.27784 6.75909 127 ft 0 kts 91°
2026-05-04 19:42 51.27784 6.75910 127 ft 0 kts 91°
2026-05-04 19:43 51.27784 6.75894 127 ft 2 kts 91°
2026-05-04 19:43 51.27785 6.75870 127 ft 2 kts 91°
2026-05-04 19:43 51.27785 6.75853 127 ft 0 kts 91°
2026-05-04 19:43 51.27782 6.75832 127 ft 2 kts 58°
2026-05-04 19:44 51.27772 6.75816 127 ft 2 kts 22°
2026-05-04 19:44 51.27763 6.75813 127 ft 0 kts
2026-05-04 19:44 51.27784 6.75814 127 ft 3 kts
2026-05-04 19:44 51.27792 6.75814 127 ft 0 kts
2026-05-04 19:47 51.27799 6.75815 127 ft 2 kts
2026-05-04 19:47 51.27824 6.75826 127 ft 5 kts 30°
2026-05-04 19:47 51.27844 6.75878 127 ft 5 kts 84°
2026-05-04 19:48 51.27844 6.75944 127 ft 5 kts 90°
2026-05-04 19:48 51.27848 6.76009 128 ft 6 kts 67°
2026-05-04 19:48 51.27886 6.76046 127 ft 7 kts
2026-05-04 19:48 51.27935 6.76048 127 ft 6 kts
2026-05-04 19:49 51.27983 6.76049 127 ft 6 kts
2026-05-04 19:49 51.28031 6.76049 127 ft 6 kts
2026-05-04 19:49 51.28059 6.76049 127 ft 0 kts 359°
2026-05-04 19:51 51.28070 6.76048 127 ft 3 kts 352°
2026-05-04 19:51 51.28085 6.76040 127 ft 0 kts 333°
2026-05-04 19:52 51.28097 6.76030 127 ft 4 kts 341°
2026-05-04 19:52 51.28140 6.76048 127 ft 8 kts 44°
2026-05-04 19:52 51.28181 6.76130 127 ft 10 kts 53°
2026-05-04 19:52 51.28227 6.76227 127 ft 11 kts 53°
2026-05-04 19:53 51.28277 6.76332 127 ft 12 kts 53°
2026-05-04 19:53 51.28330 6.76442 127 ft 12 kts 52°
2026-05-04 19:53 51.28382 6.76554 127 ft 13 kts 54°
2026-05-04 19:53 51.28440 6.76675 127 ft 14 kts 53°
2026-05-04 19:54 51.28503 6.76806 127 ft 15 kts 53°
2026-05-04 19:54 51.28570 6.76947 127 ft 16 kts 53°
2026-05-04 19:54 51.28641 6.77097 128 ft 17 kts 52°
2026-05-04 19:54 51.28711 6.77243 128 ft 16 kts 53°
2026-05-04 19:55 51.28778 6.77383 128 ft 15 kts 53°
2026-05-04 19:55 51.28840 6.77514 129 ft 14 kts 53°
2026-05-04 19:55 51.28896 6.77631 129 ft 12 kts 52°
2026-05-04 19:55 51.28949 6.77738 130 ft 11 kts 53°
2026-05-04 19:56 51.28995 6.77837 130 ft 10 kts 53°
2026-05-04 19:56 51.29035 6.77924 131 ft 8 kts 54°
2026-05-04 19:56 51.29069 6.77996 132 ft 7 kts 53°
2026-05-04 19:56 51.29100 6.78060 133 ft 7 kts 52°
2026-05-04 19:57 51.29129 6.78120 134 ft 6 kts 53°
2026-05-04 19:57 51.29160 6.78185 134 ft 8 kts 50°
2026-05-04 19:57 51.29214 6.78214 135 ft 9 kts 354°
2026-05-04 19:57 51.29255 6.78192 135 ft 0 kts 330°
2026-05-04 19:58 51.29258 6.78189 135 ft 0 kts 328°
2026-05-04 20:00 51.29260 6.78186 135 ft 2 kts 327°
2026-05-04 20:00 51.29286 6.78158 134 ft 5 kts 324°
2026-05-04 20:00 51.29321 6.78116 134 ft 6 kts 324°
2026-05-04 20:00 51.29321 6.78053 134 ft 8 kts 236°
2026-05-04 20:01 51.29193 6.77786 131 ft 64 kts 232°
2026-05-04 20:01 51.28791 6.76944 128 ft 125 kts 233°
2026-05-04 20:01 51.28173 6.75633 216 ft 162 kts 232°
2026-05-04 20:01 51.27492 6.74236 859 ft 160 kts 226°
2026-05-04 20:02 51.26799 6.72797 1383 ft 169 kts 233°
2026-05-04 20:02 51.26075 6.71192 1861 ft 192 kts 233°
2026-05-04 20:02 51.25237 6.69362 2216 ft 224 kts 233°
2026-05-04 20:02 51.24234 6.67189 2633 ft 255 kts 232°
2026-05-04 20:03 51.23126 6.64928 3476 ft 264 kts 221°
2026-05-04 20:03 51.21524 6.63699 4506 ft 263 kts 186°
2026-05-04 20:03 51.19729 6.63800 5600 ft 261 kts 176°
2026-05-04 20:03 51.17930 6.64064 6624 ft 261 kts 176°
2026-05-04 20:04 51.16127 6.64340 7567 ft 263 kts 175°
2026-05-04 20:04 51.14381 6.65155 8383 ft 270 kts 148°
2026-05-04 20:04 51.13183 6.67451 9200 ft 281 kts 115°
2026-05-04 20:04 51.12934 6.70482 9871 ft 287 kts 90°
2026-05-04 20:05 51.13133 6.73731 9942 ft 295 kts 88°
2026-05-04 20:05 51.13300 6.76990 9943 ft 296 kts 90°
2026-05-04 20:05 51.13443 6.80292 9977 ft 306 kts 89°
2026-05-04 20:05 51.13582 6.83744 10609 ft 315 kts 90°
2026-05-04 20:06 51.13714 6.87186 11583 ft 312 kts 90°
2026-05-04 20:06 51.13840 6.90559 12603 ft 308 kts 89°
2026-05-04 20:06 51.13965 6.93940 13527 ft 307 kts 89°
2026-05-04 20:06 51.14090 6.97357 14330 ft 311 kts 89°
2026-05-04 20:07 51.14214 7.00800 15072 ft 316 kts 89°
2026-05-04 20:07 51.14340 7.04337 15710 ft 325 kts 89°
2026-05-04 20:07 51.14470 7.08024 16088 ft 342 kts 89°
2026-05-04 20:07 51.14605 7.11850 16586 ft 353 kts 89°
2026-05-04 20:08 51.14741 7.15746 17255 ft 359 kts 89°
2026-05-04 20:08 51.14877 7.19724 18013 ft 361 kts 90°
2026-05-04 20:08 51.14491 7.23602 18705 ft 356 kts 116°
2026-05-04 20:08 51.13090 7.26799 19379 ft 352 kts 137°
2026-05-04 20:09 51.11521 7.29844 20036 ft 359 kts 126°
2026-05-04 20:09 51.10211 7.33218 20662 ft 364 kts 123°
2026-05-04 20:09 51.08969 7.36756 21265 ft 369 kts 121°
2026-05-04 20:09 51.07751 7.40361 21858 ft 374 kts 121°
2026-05-04 20:10 51.06524 7.44042 22441 ft 378 kts 121°
2026-05-04 20:10 51.05300 7.47726 23023 ft 381 kts 121°
2026-05-04 20:10 51.04065 7.51445 23604 ft 385 kts 121°
2026-05-04 20:10 51.02814 7.55209 24185 ft 388 kts 121°
2026-05-04 20:11 51.01553 7.59001 24774 ft 391 kts 121°
2026-05-04 20:11 51.00270 7.62848 25351 ft 394 kts 121°
2026-05-04 20:11 50.98999 7.66658 25888 ft 397 kts 122°
2026-05-04 20:11 50.97693 7.70556 26434 ft 400 kts 124°
2026-05-04 20:12 50.95946 7.73909 26900 ft 390 kts 148°
2026-05-04 20:12 50.93621 7.75947 27369 ft 386 kts 162°
2026-05-04 20:12 50.91049 7.77163 27897 ft 383 kts 173°
2026-05-04 20:12 50.88418 7.77816 28429 ft 386 kts 171°
2026-05-04 20:13 50.85849 7.79127 28943 ft 393 kts 160°
2026-05-04 20:13 50.83387 7.81147 29457 ft 397 kts 158°
2026-05-04 20:13 50.80844 7.82848 29968 ft 395 kts 164°
2026-05-04 20:13 50.78274 7.84245 30450 ft 397 kts 166°
2026-05-04 20:14 50.75637 7.85581 30890 ft 399 kts 167°
2026-05-04 20:14 50.72953 7.86904 31320 ft 402 kts 167°
2026-05-04 20:14 50.70286 7.88205 31686 ft 407 kts 167°
2026-05-04 20:14 50.67574 7.89523 32142 ft 409 kts 167°
2026-05-04 20:15 50.64876 7.90832 32668 ft 409 kts 167°
2026-05-04 20:15 50.62173 7.92141 33262 ft 407 kts 167°
2026-05-04 20:15 50.59457 7.93455 33858 ft 405 kts 168°
2026-05-04 20:15 50.56786 7.94745 34413 ft 403 kts 168°
2026-05-04 20:16 50.54129 7.96027 34918 ft 402 kts 168°
2026-05-04 20:16 50.51438 7.97323 35300 ft 402 kts 168°
2026-05-04 20:16 50.48803 7.98590 35701 ft 401 kts 167°
2026-05-04 20:16 50.46127 7.99877 36052 ft 401 kts 167°
2026-05-04 20:17 50.43476 8.01150 36401 ft 400 kts 167°
2026-05-04 20:17 50.40825 8.02421 36732 ft 400 kts 167°
2026-05-04 20:17 50.38167 8.03694 37142 ft 400 kts 167°
2026-05-04 20:17 50.35501 8.04970 37533 ft 400 kts 167°
2026-05-04 20:18 50.32866 8.06229 37861 ft 401 kts 167°
2026-05-04 20:18 50.30193 8.07505 38182 ft 401 kts 167°
2026-05-04 20:18 50.27533 8.08773 38489 ft 401 kts 166°
2026-05-04 20:18 50.24866 8.10043 38779 ft 402 kts 166°
2026-05-04 20:19 50.22220 8.11303 38948 ft 398 kts 166°
2026-05-04 20:19 50.16816 8.13867 38979 ft 412 kts 166°
2026-05-04 20:20 50.11179 8.15746 38987 ft 422 kts 177°
2026-05-04 20:20 50.05257 8.16574 38976 ft 427 kts 177°
2026-05-04 20:21 49.99382 8.17392 38965 ft 426 kts 177°
2026-05-04 20:21 49.90572 8.18615 38968 ft 425 kts 177°
2026-05-04 20:22 49.84659 8.19434 38972 ft 425 kts 177°
2026-05-04 20:22 49.78774 8.20246 38970 ft 425 kts 177°
2026-05-04 20:23 49.72896 8.21055 38967 ft 426 kts 177°
2026-05-04 20:23 49.67020 8.21863 38968 ft 427 kts 177°
2026-05-04 20:24 49.61079 8.22677 38968 ft 427 kts 177°
2026-05-04 20:24 49.55206 8.23480 38971 ft 427 kts 177°
2026-05-04 20:25 49.49266 8.24290 38965 ft 428 kts 177°
2026-05-04 20:25 49.43348 8.25095 38960 ft 428 kts 177°
2026-05-04 20:26 49.38415 8.25765 38962 ft 428 kts 177°
2026-05-04 20:26 49.31532 8.26697 38960 ft 428 kts 177°
2026-05-04 20:27 49.25597 8.27499 38963 ft 428 kts 177°
2026-05-04 20:27 49.19669 8.28297 38954 ft 427 kts 177°
2026-05-04 20:28 49.13769 8.29090 38967 ft 428 kts 177°
2026-05-04 20:28 49.07834 8.29886 38959 ft 428 kts 177°
2026-05-04 20:29 49.01912 8.30679 38965 ft 428 kts 177°
2026-05-04 20:29 48.95960 8.31171 38961 ft 428 kts 182°
2026-05-04 20:30 48.89999 8.31202 38966 ft 429 kts 182°
2026-05-04 20:30 48.85150 8.31261 38971 ft 429 kts 181°
2026-05-04 20:31 48.78169 8.31350 38957 ft 429 kts 181°
2026-05-04 20:31 48.72192 8.31427 38975 ft 430 kts 181°
2026-05-04 20:32 48.66231 8.31503 38977 ft 430 kts 181°
2026-05-04 20:32 48.60263 8.31579 38981 ft 430 kts 181°
2026-05-04 20:33 48.54282 8.31655 38986 ft 430 kts 181°
2026-05-04 20:33 48.48318 8.31731 38983 ft 432 kts 182°
2026-05-04 20:34 48.42303 8.31807 38989 ft 433 kts 182°
2026-05-04 20:34 48.36286 8.31884 38982 ft 433 kts 182°
2026-05-04 20:35 48.30257 8.31959 38994 ft 433 kts 182°
2026-05-04 20:35 48.24242 8.32035 38990 ft 433 kts 182°
2026-05-04 20:36 48.18216 8.32112 38992 ft 434 kts 181°
2026-05-04 20:36 48.12230 8.33278 39010 ft 438 kts 173°
2026-05-04 20:37 48.06220 8.34739 39009 ft 437 kts 173°
2026-05-04 20:37 48.00200 8.36194 39008 ft 440 kts 173°
2026-05-04 20:38 47.94145 8.37655 39007 ft 440 kts 173°
2026-05-04 20:38 47.88220 8.39081 38997 ft 439 kts 173°
2026-05-04 20:39 47.82180 8.40531 39009 ft 439 kts 173°
2026-05-04 20:39 47.76189 8.41966 39008 ft 439 kts 173°
2026-05-04 20:40 47.70153 8.43408 39020 ft 439 kts 173°
2026-05-04 20:40 47.64124 8.44421 39012 ft 438 kts 177°
2026-05-04 20:41 47.58056 8.45306 39014 ft 438 kts 177°
2026-05-04 20:41 47.51991 8.46199 39010 ft 439 kts 177°
2026-05-04 20:42 47.45900 8.47094 39023 ft 439 kts 177°
2026-05-04 20:42 47.39837 8.47982 39015 ft 439 kts 177°
2026-05-04 20:43 47.33778 8.48868 39016 ft 439 kts 177°
2026-05-04 20:43 47.27721 8.49752 39013 ft 439 kts 177°
2026-05-04 20:44 47.21674 8.50635 38914 ft 429 kts 177°
2026-05-04 20:44 47.18705 8.51067 38594 ft 422 kts 177°
2026-05-04 20:44 47.15810 8.51488 38117 ft 419 kts 177°
2026-05-04 20:45 47.12925 8.51907 37670 ft 418 kts 178°
2026-05-04 20:45 47.10022 8.52328 37176 ft 419 kts 178°
2026-05-04 20:45 47.07122 8.52749 36704 ft 421 kts 177°
2026-05-04 20:45 47.04212 8.53170 36296 ft 423 kts 178°
2026-05-04 20:46 47.01258 8.53597 35929 ft 424 kts 178°
2026-05-04 20:46 46.98335 8.54020 35563 ft 424 kts 178°
2026-05-04 20:46 46.95434 8.54438 35200 ft 424 kts 178°
2026-05-04 20:46 46.92485 8.54862 34830 ft 424 kts 178°
2026-05-04 20:47 46.89558 8.55283 34461 ft 424 kts 178°
2026-05-04 20:47 46.87597 8.55565 34186 ft 424 kts 178°
2026-05-04 20:47 46.83677 8.56128 33633 ft 424 kts 177°
2026-05-04 20:47 46.80736 8.56550 33221 ft 424 kts 177°
2026-05-04 20:48 46.77824 8.56967 32812 ft 424 kts 177°
2026-05-04 20:48 46.74898 8.57385 32404 ft 424 kts 176°
2026-05-04 20:48 46.71980 8.57802 31993 ft 424 kts 176°
2026-05-04 20:48 46.69043 8.58221 31579 ft 424 kts 176°
2026-05-04 20:49 46.66105 8.58641 31168 ft 425 kts 176°
2026-05-04 20:49 46.63185 8.59057 30756 ft 421 kts 176°
2026-05-04 20:49 46.60283 8.59470 30336 ft 418 kts 176°
2026-05-04 20:49 46.57398 8.59880 29897 ft 414 kts 176°
2026-05-04 20:50 46.54553 8.60284 29460 ft 411 kts 176°
2026-05-04 20:50 46.51695 8.60689 29019 ft 409 kts 176°
2026-05-04 20:50 46.48858 8.61091 28582 ft 407 kts 176°
2026-05-04 20:50 46.46084 8.61484 28152 ft 404 kts 176°
2026-05-04 20:51 46.43304 8.61877 27740 ft 401 kts 176°
2026-05-04 20:51 46.40540 8.62267 27310 ft 395 kts 176°
2026-05-04 20:51 46.37851 8.62646 26706 ft 391 kts 176°
2026-05-04 20:51 46.35139 8.63028 26318 ft 393 kts 176°
2026-05-04 20:52 46.32419 8.63411 25945 ft 391 kts 176°
2026-05-04 20:52 46.29700 8.63793 25573 ft 389 kts 176°
2026-05-04 20:52 46.27054 8.64165 25208 ft 387 kts 176°
2026-05-04 20:52 46.24395 8.64538 24823 ft 384 kts 176°
2026-05-04 20:53 46.21739 8.64911 24423 ft 381 kts 176°
2026-05-04 20:53 46.20078 8.65144 24173 ft 379 kts 177°
2026-05-04 20:53 46.17594 8.65492 23787 ft 377 kts 177°
2026-05-04 20:53 46.14136 8.65975 23258 ft 373 kts 177°
2026-05-04 20:54 46.11544 8.66353 22841 ft 373 kts 174°
2026-05-04 20:54 46.09103 8.67593 22500 ft 377 kts 156°
2026-05-04 20:54 46.07557 8.68773 22236 ft 378 kts 155°
2026-05-04 20:54 46.04502 8.71150 21672 ft 376 kts 155°
2026-05-04 20:55 46.02206 8.72945 21239 ft 373 kts 155°
2026-05-04 20:55 45.99941 8.74716 20811 ft 372 kts 155°
2026-05-04 20:55 45.97652 8.76505 20417 ft 370 kts 155°
2026-05-04 20:55 45.95424 8.78244 19997 ft 361 kts 155°
2026-05-04 20:56 45.93256 8.79936 19596 ft 351 kts 155°
2026-05-04 20:56 45.91135 8.81589 19215 ft 342 kts 155°
2026-05-04 20:56 45.89844 8.82595 18986 ft 340 kts 155°
2026-05-04 20:56 45.87100 8.84730 18509 ft 341 kts 154°
2026-05-04 20:57 45.85023 8.86344 18134 ft 341 kts 154°
2026-05-04 20:57 45.82916 8.87981 17757 ft 340 kts 154°
2026-05-04 20:57 45.80845 8.89589 17385 ft 338 kts 154°
2026-05-04 20:57 45.78793 8.91179 17031 ft 334 kts 154°
2026-05-04 20:58 45.76771 8.92743 16664 ft 332 kts 154°
2026-05-04 20:58 45.74742 8.94311 16293 ft 330 kts 154°
2026-05-04 20:58 45.72748 8.95851 15882 ft 329 kts 154°
2026-05-04 20:58 45.70728 8.97411 15420 ft 324 kts 154°
2026-05-04 20:59 45.68763 8.98925 14966 ft 321 kts 154°
2026-05-04 20:59 45.66802 9.00436 14668 ft 320 kts 154°
2026-05-04 20:59 45.65506 9.01434 14438 ft 318 kts 153°
2026-05-04 20:59 45.62919 9.03429 14026 ft 316 kts 153°
2026-05-04 21:00 45.60990 9.04916 13684 ft 315 kts 153°
2026-05-04 21:00 45.59685 9.05922 13446 ft 314 kts 153°
2026-05-04 21:00 45.57148 9.07872 13003 ft 311 kts 153°
2026-05-04 21:00 45.55253 9.09325 12666 ft 310 kts 153°
2026-05-04 21:01 45.53365 9.10771 12320 ft 308 kts 152°
2026-05-04 21:01 45.51452 9.12210 11975 ft 305 kts 157°
2026-05-04 21:01 45.49417 9.12822 11726 ft 302 kts 174°
2026-05-04 21:01 45.47322 9.13080 11407 ft 302 kts 174°
2026-05-04 21:02 45.45255 9.13321 11145 ft 295 kts 174°
2026-05-04 21:02 45.43879 9.13479 11010 ft 287 kts 174°
2026-05-04 21:02 45.41311 9.13770 10756 ft 272 kts 174°
2026-05-04 21:02 45.39476 9.13977 10517 ft 259 kts 174°
2026-05-04 21:03 45.37708 9.14175 10250 ft 252 kts 174°
2026-05-04 21:03 45.35981 9.14369 9894 ft 250 kts 174°
2026-05-04 21:03 45.34816 9.14500 9633 ft 250 kts 174°
2026-05-04 21:03 45.32504 9.14759 9095 ft 250 kts 174°
2026-05-04 21:04 45.30781 9.14952 8695 ft 250 kts 174°
2026-05-04 21:04 45.29631 9.15081 8423 ft 250 kts 174°
2026-05-04 21:04 45.27314 9.15340 7890 ft 250 kts 174°
2026-05-04 21:04 45.25595 9.15532 7513 ft 248 kts 174°
2026-05-04 21:05 45.23897 9.15722 7298 ft 240 kts 174°
2026-05-04 21:05 45.22265 9.15903 7098 ft 232 kts 173°
2026-05-04 21:05 45.20685 9.16077 6904 ft 225 kts 174°
2026-05-04 21:05 45.19117 9.16249 6667 ft 221 kts 173°
2026-05-04 21:06 45.18111 9.16367 6496 ft 218 kts 168°
2026-05-04 21:06 45.16574 9.17928 6200 ft 209 kts 111°
2026-05-04 21:06 45.16532 9.19933 6035 ft 214 kts 68°
2026-05-04 21:06 45.17347 9.21719 5816 ft 220 kts 53°
2026-05-04 21:07 45.18338 9.23377 5536 ft 218 kts 49°
2026-05-04 21:07 45.19363 9.24951 5244 ft 217 kts 47°
2026-05-04 21:07 45.20419 9.26498 4920 ft 218 kts 46°
2026-05-04 21:07 45.21487 9.28022 4604 ft 218 kts 45°
2026-05-04 21:08 45.22618 9.29427 4265 ft 219 kts 24°
2026-05-04 21:08 45.24095 9.29828 3969 ft 217 kts
2026-05-04 21:08 45.25586 9.29754 3783 ft 215 kts 353°
2026-05-04 21:08 45.27084 9.29570 3528 ft 215 kts 353°
2026-05-04 21:09 45.28564 9.29404 3254 ft 214 kts 354°
2026-05-04 21:09 45.30043 9.29246 2999 ft 204 kts 353°
2026-05-04 21:09 45.30940 9.29153 2825 ft 192 kts 353°
2026-05-04 21:09 45.32226 9.29018 2545 ft 176 kts 352°
2026-05-04 21:10 45.33765 9.28855 2243 ft 157 kts 352°
2026-05-04 21:10 45.34801 9.28743 2031 ft 141 kts 351°
2026-05-04 21:10 45.35426 9.28678 1886 ft 132 kts 351°
2026-05-04 21:10 45.36619 9.28547 1658 ft 128 kts 351°
2026-05-04 21:11 45.37513 9.28451 1507 ft 129 kts 351°
2026-05-04 21:11 45.38428 9.28353 1341 ft 132 kts 352°
2026-05-04 21:11 45.39339 9.28258 1154 ft 131 kts 352°
2026-05-04 21:11 45.40257 9.28149 986 ft 132 kts 351°
2026-05-04 21:12 45.41173 9.28058 844 ft 133 kts 352°
2026-05-04 21:12 45.42100 9.27967 646 ft 135 kts 353°
2026-05-04 21:12 45.43038 9.27870 458 ft 132 kts 353°
2026-05-04 21:12 45.43940 9.27766 348 ft 122 kts 353°
2026-05-04 21:13 45.44643 9.27693 354 ft 80 kts 355°
2026-05-04 21:13 45.45001 9.27653 356 ft 32 kts 355°
2026-05-04 21:13 45.45200 9.27635 357 ft 19 kts 359°
2026-05-04 21:13 45.45327 9.27669 358 ft 18 kts 21°
2026-05-04 21:14 45.45414 9.27734 359 ft 9 kts 34°
2026-05-04 21:14 45.45468 9.27801 360 ft 10 kts 33°
2026-05-04 21:14 45.45542 9.27816 360 ft 11 kts 360°
2026-05-04 21:14 45.45599 9.27817 360 ft 13 kts 360°
2026-05-04 21:15 45.45725 9.27817 361 ft 13 kts
2026-05-04 21:15 45.45813 9.27820 361 ft 11 kts
2026-05-04 21:15 45.45858 9.27822 362 ft 8 kts
2026-05-04 21:15 45.45931 9.27848 362 ft 7 kts
2026-05-04 21:16 45.45964 9.27849 362 ft 1 kts
2026-05-04 21:16 45.45969 9.27849 363 ft 0 kts 359°
2026-05-04 21:16 45.45979 9.27849 363 ft 2 kts
2026-05-04 21:16 45.45982 9.27849 363 ft 0 kts